"Pseudo-MPEC" for 2019-021B = NORAD 44187 = Falcon 9 rocket

Created 2019 Sep 2 14:16:46 UT using Find_Orb

Click here for an explanation of pseudo-MPECs

You can find TLEs for this object, and for some of the other artsats on these pages.

In October 2019, the object had some close perigees and the orbital period dropped by about 37 minutes due to atmospheric drag. Space-Track "lost" the object and stopped producing TLEs. However, the object showed up three times on NEOCP in August and September. Click here for a pseudo-MPEC based on the recent data, and analysis of the eventual June 2021 re-entry.

Denis Denisenko found a linkage between ZTF06NN = S511700, as a new and (at the time) unidentified artificial satellite. That gave me an orbit allowing me to link in three previous detections, S511643 = ZTF06CH = S511500, spanning 22 May to 31 August 2019.

A search for other detections in the ITF and NEOCP, going back to January 2018, was unsuccessful. So I thought the object might be new, or could have maneuvered.

I often run puzzles of this sort past Jonathan McDowell. He promptly identified the object as 2019-021B = NORAD 44187, the Falcon 9 rocket from the Arabsat 6A launch on 2019 April 11. Which would certainly explain why I couldn't get precoveries before May 22.

Space-Track has sometimes provided TLEs for this object, but not very consistently (and eventually lost the object completely). Catalina Sky Survey and (X74) Observatório Campo dos Amarais both found the object at times when we did have TLE coverage. Leonardo Amaral mentioned that it was about two degrees off prediction, so the TLEs, while available from Space-Track, were already not especially good.

Since mid-2019, we have had to compute our own orbits and TLEs for this object, based on observations.

 
 Astrometry: 
     S511500  C2019 05 22.30993 23 31 29.42 -06 29 25.8    ~5MES 10.4 RqNEOCPY00
     S511500  C2019 05 22.31089 23 31 47.76 -06 27 02.8    ~5MES 11.5 RqNEOCPY00
     S511500  C2019 05 22.31191 23 32 06.50 -06 24 36.3    ~5MES 10.8 RqNEOCPY00
     C0D49Q1  C2019 07 03.43468 01 35 47.78 +05 11 17.3         x12.9 GV     703
     C0D49Q1  C2019 07 03.43955 01 36 20.77 +05 16 09.0         x13.1 GV     703
     C0D49Q1  C2019 07 03.44442 01 36 51.54 +05 20 46.1         x12.9 GV     703
     C0D49Q1  C2019 07 03.44929 01 37 23.64 +05 25 38.1         x12.9 GV     703
     C0D7Y31  C2019 07 04.42480 00 42 44.82 -00 32 05.1         x12.9 GV     703
     C0D7Y31  C2019 07 04.42999 00 43 18.20 -00 25 28.7         x12.3 GV     703
     C0D7Y31  C2019 07 04.43519 00 43 50.12 -00 19 05.7         x12.3 GV     703
     C0D7Y31  C2019 07 04.44038 00 44 22.21 -00 12 32.7         x12.3 GV     703
     S511643  C2019 07 28.26928 23 28 45.34 -01 24 36.0    ~7SF1 11.5 RqNEOCPY00
     S511643  C2019 07 28.27062 23 29 12.85 -01 21 04.2    ~7SF1 11.3 RqNEOCPY00
     S511643  C2019 07 28.27232 23 29 47.06 -01 16 40.5    ~7SF1 11.2 RqNEOCPY00
     057001s tC2019 07 31.29322 00 56 06.26 +06 55 16.4         x14.5 R      X74
     057001s tC2019 07 31.30313 00 56 44.45 +07 04 44.5         x14.9 R      X74
     057001s tC2019 07 31.31300 00 57 22.41 +07 14 10.6         x15.1 R      X74
     ZTF06NN  C2019 08 28.43873801 04 47.16 +05 33 39.5    ~8V3w 12.84gUNEOCPI41
     ZTF06NN  C2019 08 28.43908601 04 48.62 +05 33 59.8    ~8V3w 12.84gUNEOCPI41
     ZTF06NN  C2019 08 28.45247701 05 46.47 +05 47 05.6    ~8V3w 12.93gUNEOCPI41
     ZTF06NN  C2019 08 28.45282401 05 48.00 +05 47 26.1    ~8V3w 12.93gUNEOCPI41
     ZTF06NN  C2019 08 28.45292801 05 48.49 +05 47 31.6    ~8V3w 12.93gUNEOCPI41
     ZTF06NN  C2019 08 28.45327501 05 50.01 +05 47 51.5    ~8V3w 12.93gUNEOCPI41
     S511700  C2019 08 31.22483 01 23 07.52 +11 05 11.3    ~8VC0 12.2 RqNEOCPY00
     S511700  C2019 08 31.22576 01 23 10.71 +11 06 00.6    ~8VC0 12.8 RqNEOCPY00
     S511700  C2019 08 31.22691 01 23 14.62 +11 07 01.1    ~8VC0 13.0 RqNEOCPY00
     ZTF06bl  C2019 09 01.43210701 01 55.17 +05 28 19.5    ~92D0 12.88gUNEOCPI41
     ZTF06bl  C2019 09 01.43245401 01 56.67 +05 28 40.2    ~92D0 12.88gUNEOCPI41
     ZTF06bl  C2019 09 01.43255801 01 56.82 +05 28 50.1    ~92D0 12.86gUNEOCPI41
     ZTF06bl  C2019 09 01.43290501 01 58.43 +05 29 12.0    ~92D0 12.86gUNEOCPI41

Station data:
(703) Catalina Sky Survey  (N32.417006 W110.732640)  US/Arizona.  Observer B.
   M. Africano. Measurers B. M. Africano, E. J. Christensen, G. A. Farneth,
   D. C. Fuls, A. R. Gibbs, A. D. Grauer, H. Gröller, R. A. Kowalski, S. M.
   Larson, G. J. Leonard, T. A. Pruyne, D. Rankin, R. L. Seaman, F. C. Shelly.
    0.68-m Schmidt + 10K CCD.
(I41) Palomar Mountain--ZTF  (N33.357340 W116.859780)  US/California. 1.2-m
   f/2.44 Oschin Schmidt + CCD.
(X74) Observatório Campo dos Amarais  (S21.661263 W50.849400)  Brazil.
(Y00) SONEAR Observatory, Oliveira  (S20.715082 W44.784960)  Brazil.
   Observers C. Jacques, E. Pimentel, J. Barros. Measurer C. Jacques. 0.28-m
   f/2.2 astrograph + CCD.

Orbital elements:  2019-021B = NORAD 44187 = Falcon 9 rocket
   Perigee 2019 Aug 1.125543 +/- 4.63e-5 TT =  3:00:46 (JD 2458696.625543)
Epoch 2019 Aug  1.0 TT; AMR 0.057376 +/- 0.00906 m2/kg       Gray
M 326.2491722236 +/- 0.012          (J2000 equator)
n 268.8383729698 +/- 0.000182       Peri.  199.5314885 +/- 0.10
a 51318.741863 +/- 0.0232           Node     1.2566157 +/- 0.10
e   0.866326702 +/- 3.38e-5         Incl.   22.8522291 +/- 0.0014
P1928.26m/1.339d           H 26.9   G  0.15   U  7.0
q 6859.9454447 +/- 1.73    Q 95777.538281 +/- 1.75
19 of 30 observations 2019 May 22-Sept. 1; mean residual 7".784
Residuals in arcseconds: 
190522 Y00 3.27+ 1.57+    190704 703( 121- 37.3-)   190828 I41 11.6- 4.99-
190522 Y00 7.92+ 4.11+    190728 Y00 11.1- 6.13-    190828 I41 11.0- 5.50-
190522 Y00 4.34+ 2.24+    190728 Y00 10.4- 5.45-    190828 I41 10.7- 5.65-
190703 703( 142- 45.4-)   190728 Y00 13.4- 6.68-    190831 Y00 1.50+ .458-
190703 703( 131- 39.5-)   190731 X74( 177- 85.1-)   190831 Y00 1.66+ .101-
190703 703( 148- 48.6-)   190731 X74( 189- 95.8-)   190831 Y00 1.40+ .018-
190703 703( 139- 43.1-)   190731 X74( 191- 96.7-)   190901 I41 14.9+ 4.22+
190704 703( 123- 41.2-)   190828 I41 9.89- 4.59-    190901 I41 14.1+ 3.78+
190704 703( 120- 37.5-)   190828 I41 10.6- 5.03-    190901 I41 9.41+ 7.35+
190704 703( 128- 44.4-)   190828 I41 12.1- 5.42-    190901 I41 10.3+ 8.13+

